200 serials | hotspot shield elite

Date Name Success Rate
2011-09-08 11:09:33 HotSpot 2.0 78%
2011-09-08 11:09:33 HotSpot v2.0 58%
2011-09-08 11:03:35 GravityBox Hotspot Incl Source v1.1.156 Retail 0%
2011-09-08 10:50:50 Eye Shield v1.2.0.65 0%
2009-10-22 23:49:52 Seo Elite 0%
2011-09-08 10:49:05 Elite BBS 0%
2011-09-08 10:49:05 Elite FTP 2.1 0%
2011-09-08 10:49:05 Elite FTP v2.1 0%
2009-10-17 06:25:15 IP Address Shield V4.6.051.02 0%
2009-10-17 06:28:00 Messenger Shield V3.0 0%
2009-10-22 23:48:17 INSTALL SHIELD 11! 47%
2009-10-22 23:48:17 IP Address Shield 4.6 0%
2009-10-22 23:48:17 IP Address Shield V4.6.051.02 0%
2009-10-22 23:48:48 Message Shield 2.0 0%
2009-10-22 23:48:48 Messenger Shield 3.0 0%
2009-10-22 23:49:41 Raven Shield 0%
2009-10-22 23:50:03 System Shield 2 0%
2009-10-22 23:50:03 System Shield 2.0b 0%
2009-10-22 23:50:20 Universal Shield 4.1 80%
2009-10-22 23:50:20 Universal Shield V.3.1 80%
2011-09-08 10:23:27 Call Shield 1.0 0%
2011-09-08 10:23:27 Call Shield 1.1 0%
2011-09-08 11:15:35 Install Shield 0%
2011-09-08 11:15:35 Install Shield 32 0%
2011-09-08 11:15:35 Install Shield v1.1a Pro 0%
2011-09-08 11:15:37 Install Shield v5.0 Pro 0%
2011-09-08 11:30:57 Message Shield 2.0 0%
2011-09-08 11:31:03 Messenger Shield 3.0 0%
2011-09-08 11:31:03 Messenger Shield v3.0 0%
2011-09-08 12:40:32 Raven Shield 0%
2011-09-08 13:00:58 System Shield 1.0 0%
2011-09-08 13:00:58 System Shield 2.0b 0%
2011-09-08 13:00:58 System Shield 2.1c 0%
2011-09-08 13:00:58 System Shield Pro 2.1c 0%
2011-09-08 13:00:58 System Shield v2.0b 0%
2011-09-08 13:00:58 System Shield v2.0b ENG 0%
2011-09-08 13:00:58 System Shield v2.1 0%
2011-09-08 13:00:58 System Shield v2.1 Pro 0%
2011-09-08 13:08:41 Universal Shield 3.1 0%
2011-09-08 13:08:41 Universal shield v3.1 30%
2009-10-22 23:47:41 Elite Force 2 0%
2009-10-22 23:47:41 Elite Satelite Tv 98%
2009-10-22 23:47:41 Elite Utopia 0%
2009-10-22 23:48:30 KChess Elite 4.0.0.34 0%
2009-10-22 23:48:30 Kchess Elite 4.0.0.37 67%
2009-10-22 23:49:20 Pc Coach Elite 3.5 0%
2009-10-22 23:49:55 Sniper Elite 83%
2009-10-22 23:50:03 Swift Elite 1.0 0%
2009-10-22 23:50:03 Swift Elite 1.01 100%
2011-09-08 09:45:56 3D Elite MahJongg v3.96 0%
2011-09-08 10:49:05 Elite Force 0%
2011-09-08 10:49:05 Elite Force 2 0%
2011-09-08 10:49:05 ELITE FORCE II 0%
2011-09-08 10:49:05 Elite Typing 99 0%
2011-09-08 10:49:05 Elite utopia 0%
2011-09-08 11:20:55 K-Chess Elite 2.5d 0%
2011-09-08 11:20:55 K-Chess Elite v2.5 0%
2011-09-08 11:20:55 K-Chess Elite v2.5d 0%
2011-09-08 11:20:55 K-Chess Elite v3.0a 0%
2011-09-08 11:20:55 K-Chess Elite v3.5.0.9 0%
2011-09-08 11:21:14 KChess Elite 30 v3.6.0.3 0%
2011-09-08 11:21:14 KChess Elite 32 3.6 0%
2011-09-08 11:21:14 KChess Elite 4.0.0.34 0%
2011-09-08 11:21:14 Kchess Elite 4.0.0.37 0%
2011-09-08 11:21:14 Kchess Elite v4.0.0.37 100%
2011-09-08 11:26:36 LinoColor Elite 5.1 0%
2011-09-08 11:26:36 LinoColor Elite 6.0 0%
2011-09-08 11:26:36 LinoColor Elite v5.1 0%
2011-09-08 11:26:36 LinoColor Elite v6.0 0%
2011-09-08 11:26:53 Living Doc eLite 2.52 0%
2011-09-08 12:28:57 PC Coach Elite 3.5 0%
2011-09-08 12:28:57 PC Coach Elite v3 5 0%
2011-09-08 13:00:34 Swift Elite 1.0 0%
2011-09-08 13:00:34 Swift Elite 1.01 0%
2011-09-08 13:00:34 Swift Elite 1.012 100%
2011-09-08 13:00:34 Swift Elite v1.0 0%
2009-10-17 06:18:26 Advanced Desktop Shield V1.5 16%
2009-10-17 06:18:26 Advanced Desktop Shield V1.6 91%
2009-10-17 06:18:26 Advanced Desktop Shield V1.8 Only 11%
2009-10-17 06:18:26 Advanced Desktop Shield V1.9 Only 13%
2009-10-17 06:18:26 Advanced Desktop Shield V2.2-CRD 17%
2009-10-17 06:32:55 System Shield Professional V2.1c 0%
2009-10-17 06:32:55 System Shield Professional V2.1c 0%
2009-10-17 06:33:27 The Shield Pro AntiVirus V2007 0%
2009-10-22 23:27:12 Active Virus Shield 70%
2009-10-22 23:27:12 Active Virus Shield - AOL 20%
2009-10-22 23:27:14 Advanced Desktop Shield 1.4 0%
2009-10-22 23:27:14 Advanced Desktop Shield 1.5 0%
2009-10-22 23:27:14 Advanced Desktop Shield 1.6 0%
2009-10-22 23:27:14 Advanced Desktop Shield V1.8 0%
2009-10-22 23:27:14 Advanced Desktop Shield V2.2 0%
2009-10-22 23:27:14 Advanced Desktop Shield V2.3 0%
2009-10-22 23:27:14 Advanced Desktop Shield V2.4 0%
2009-10-22 23:27:20 Anti-trojan Shield 0%
2009-10-22 23:27:20 Anti-Trojan Shield 1.3.0.5 0%
2009-10-22 23:27:20 Anti-Trojan Shield 1.3.0.7 0%
2009-10-22 23:27:20 Anti-Trojan Shield 2.1.0.14 56%
2009-10-22 23:47:53 Folder Shield 2001 V 1.00 0%
2009-10-22 23:47:53 Folder Shield By Karthik 0%
2009-10-22 23:48:17 Install Shield Express 3.54 0%
2009-10-22 23:48:17 Iolo System Shield.2.1c 0%
2009-10-22 23:49:41 Rainbow Six 3: Raven Shield 0%
2009-10-22 23:49:41 Raven Shield Rainbow Six 3 39%
2009-10-22 23:49:53 Shield Deluxe 2008 0%
2009-10-22 23:50:03 System Shield Person 2.1a 0%
2009-10-22 23:50:03 System Shield Professional 2.1a 0%
2009-10-22 23:50:03 System Shield Professional 2.1c 0%
2009-10-22 23:50:10 The Shield Pro AntiVirus V2007 0%
2011-09-08 10:01:08 Advanced Desktop Shield 1.4 0%
2011-09-08 10:01:08 Advanced Desktop Shield 1.5 0%
2011-09-08 10:01:08 Advanced Desktop Shield 1.6 0%
2011-09-08 10:01:08 Advanced Desktop Shield v1.4 0%
2011-09-08 10:01:08 Advanced Desktop Shield v1.5 0%
2011-09-08 10:07:10 Anti-trojan shield 0%
2011-09-08 10:07:10 Anti-Trojan Shield 1.3.0.5 0%
2011-09-08 10:07:10 Anti-Trojan Shield v1.3.0.5 0%
2011-09-08 10:07:10 Anti-Trojan Shield v1.3.0.7 0%
2011-09-08 10:07:10 Anti-Trojan Shield v1.3.07 0%
2011-09-08 10:07:10 Anti-Trojan Shield v1.4.0.10 0%
2011-09-08 10:07:10 Anti-Trojan Shield v1.4.0.15 0%
2011-09-08 10:55:59 Folder Shield 2001 1.0 0%
2011-09-08 10:56:00 Folder Shield 2001 v1.0 0%
2011-09-08 10:56:00 folder shield by karthik 0%
2011-09-08 11:15:35 Install Shield Developer 8 0%
2011-09-08 11:15:35 Install Shield Developer 8.0.86 0%
2011-09-08 11:15:35 Install Shield Developer v8.0.86 0%
2011-09-08 11:15:35 Install Shield Express v1.54 0%
2011-09-08 11:15:35 Install Shield for Windows 0%
2011-09-08 11:15:35 Install Shield Professional v6.21 73%
2011-09-08 11:15:35 Install Shield v2.01 Express 0%
2011-09-08 11:15:35 Install Shield v5.0 build 207 0%
2011-09-08 11:15:37 Install Shield v5.0 Pro Win95 0%
2011-09-08 11:15:37 Install Shield v5.1 Pro core 0%
2011-09-08 11:15:37 Install Shield v5.1 Pro examples 0%
2011-09-08 11:15:37 Install Shield v5.1 Pro help files 100%
2011-09-08 11:15:37 Install Shield v5.1 Pro VB template 0%
2011-09-08 11:15:37 Install-Shield v5.0 Build 207 0%
2011-09-08 11:16:56 iolo System Shield v2.0b 0%
2011-09-08 11:16:56 iolo System Shield v2.1c 0%
2011-09-08 12:40:12 Rainbow Six 3: Raven Shield 0%
2011-09-08 12:58:43 Steganos Online Shield 1.5 0%
2011-09-08 12:58:43 Steganos Online Shield v1.5 22%
2011-09-08 13:00:58 System Shield Person 2.1a 0%
2011-09-08 13:00:58 System Shield Professional 2.1a 0%
2011-09-08 13:00:58 System Shield Professional 2.1c 0%
2011-09-08 13:00:58 System Shield v1.0 by ViRiLiTY 0%
2011-09-08 13:00:58 System Shield v2.0b Personal 0%
2011-09-08 13:00:58 System Shield v2.0b Professional 0%
2011-09-08 13:00:58 System Shield v2.1 Personal 0%
2012-12-12 00:06:36 Advanced Desktop Shield v3.0 0%
2009-10-17 06:30:19 Profab Elite With Laser V7.3 0%
2009-10-17 06:33:30 TriceraSoft Swift Elite V1.011 0%
2009-10-17 06:33:30 TriceraSoft Swift Elite V1.012 0%
2009-10-22 23:27:20 Anti Trojan Elite 2.9.1 0%
2009-10-22 23:48:59 Nero PhotoShow Elite 1.0 0%
2009-10-22 23:49:27 Profab Elite With Laser 7.3 8%
2009-10-22 23:49:59 Star Trek Elite For S/n: Ce II 0%
2009-10-22 23:50:03 Swat 3 Elite Edition 0%
2009-10-22 23:50:03 SWAT 3: Elite Edition 0%
2009-10-22 23:50:03 SWAT3 Elite Edition UK 0%
2009-10-22 23:50:13 TriceraSoft Swift Elite 1.012 0%
2011-09-08 10:02:44 Aid Submission Genius v1.51 Elite 0%
2011-09-08 10:07:07 Anti Trojan Elite v2.9.1 100%
2011-09-08 10:18:45 Ballistic Basics Elite v7.0 0%
2011-09-08 10:18:45 Ballistic Basics Elite 7.0 0%
2011-09-08 10:20:34 Blue Phone Elite 2.2 0%
2011-09-08 10:49:05 Elite Style Notepad 1.7 0%
2011-09-08 10:49:05 Elite Style Notepad v1.7 0%
2011-09-08 10:49:05 Elite Typing 2000 4.1 0%
2011-09-08 10:49:05 Elite Typing 2000 v4.1 0%
2011-09-08 10:49:05 Elite Typing 2001 4.2 0%
2011-09-08 10:49:05 Elite Typing 2001 v4.2 0%
2011-09-08 11:21:14 KChess Elite v4.0.0.34 by TSRh 0%
2011-09-08 11:41:08 Nero PhotoShow Elite 0%
2011-09-08 11:41:08 Nero PhotoShow Elite 1.0 0%
2011-09-08 11:41:08 Nero PhotoShow Elite v1.0 0%
2011-09-08 12:55:39 TriceraSoft Swift Elite 1.011 0%
2011-09-08 12:55:39 TriceraSoft Swift Elite 1.012 0%
2011-09-08 12:55:39 TriceraSoft Swift Elite v1.0.11 0%
2011-09-08 12:55:39 TriceraSoft Swift Elite v1.01 0%
2011-09-08 12:55:39 TriceraSoft Swift Elite v1.011 0%
2011-09-08 12:55:39 TriceraSoft Swift Elite v1.012 0%
2011-09-08 12:58:24 STARTREK ELITE FORCE II 0%
2011-09-08 12:59:07 Sttimy Script Elite 0%
2011-09-08 13:00:29 SWAT 3 - ELITE EDITION 0%
2011-09-08 13:00:29 swat 3 elite edition 0%
2011-09-08 13:00:29 SWAT 3.0 Elite Edition 0%
2011-09-08 13:00:29 SWAT 3: Elite Edition 0%
2011-09-08 13:00:29 Swat v3.0 Elite Edition 0%
2012-12-13 01:02:15 PDF Converter Elite v2009 0%
2009-10-17 06:18:26 Advanced Desktop Shield V2.3 KeyMaker 22%
2009-10-17 06:25:15 Iolo System Shield 2.1c SERIAL 77%
2009-10-17 06:32:54 SurfControl Enterprise Threat Shield V3.0.1 0%
2009-10-22 23:27:23 Arzoosoft Magical File Shield V1.0 0%
2009-10-22 23:48:17 Install Shield X Premier Edition V10.0 0%
2009-10-22 23:50:10 The Shield Deluxe 2009 -trail 60%
2011-09-08 10:01:08 Advanced Desktop Shield v1.5 by CHiCNCREAM 0%
2011-09-08 10:55:59 Folder Shield 2001 Retail 1.1 0%
2011-09-08 10:55:59 Folder Shield 2001 Retail v1.1 0%
2011-09-08 11:15:35 Install Shield 5 Professional Internat 0%